Glover Park, Texas, United States
Lat: 32.76N, Lon: 96.71W
Wx Zone: TXZ119
Local Info
Past Weather Observations for Today

NOTE: This archive is for the closest National Weather Service station to Glover Park. Information may differ from the station used for current weather conditions.

Click here for Long-term Archive

Time Weather Temperature Dewpoint Humidity Pressure Winds Precip Visibility
13:50
Overcast
75°F / 24°C 66°F / 19°C 74% 30.06 in
(1018 mb)
NNW 12.7 mph
(NNW 20 kph)
- 10SM
12:50
Overcast
73°F / 23°C 68°F / 20°C 83% 30.06 in
(1018 mb)
NW 10.4 mph
(NW 17 kph)
- 10SM
10:50
Clear
73°F / 23°C 66°F / 19°C 78% 30.06 in
(1018 mb)
N 4.6 mph
(N 7 kph)
- 10SM
09:50
Clear
72°F / 22°C 66°F / 19°C 83% 30.04 in
(1017 mb)
NE 6.9 mph
(NE 11 kph)
- 10SM
08:50
Overcast
66°F / 19°C 66°F / 19°C 100% 30.04 in
(1017 mb)
ENE 10.4 mph
(ENE 17 kph)
- 10SM
07:55
Overcast
Thunder Storms
66°F / 19°C 64°F / 18°C 94% 30.09 in
(1019 mb)
N 3.5 mph
(N 6 kph)
- 5SM
06:55
Overcast
Thunder Storms
64°F / 18°C 64°F / 18°C 100% 30.09 in
(1019 mb)
NW 12.7 mph
(NW 20 kph)
- 5SM
06:12
Overcast
Thunder Storms
72°F / 22°C 70°F / 21°C 94% 30.04 in
(1017 mb)
W 24.2 mph
(W 39 kph)
- 1/2SM
05:55
Overcast
Thunder Storms
72°F / 22°C 70°F / 21°C 94% 29.98 in
(1015 mb)
ENE 6.9 mph
(ENE 11 kph)
- 3SM
05:15
Overcast
72°F / 22°C 68°F / 20°C 88% 29.98 in
(1015 mb)
ESE 6.9 mph
(ESE 11 kph)
- 10SM
04:55
Overcast
72°F / 22°C 68°F / 20°C 88% 29.98 in
(1015 mb)
E 6.9 mph
(E 11 kph)
- 10SM
04:35
Overcast
72°F / 22°C 68°F / 20°C 88% 30.01 in
(1016 mb)
ENE 4.6 mph
(ENE 7 kph)
- 10SM
04:15
Overcast
72°F / 22°C 68°F / 20°C 88% 29.98 in
(1015 mb)
Calm - 10SM
03:55
Overcast
72°F / 22°C 70°F / 21°C 94% 29.98 in
(1015 mb)
Calm - 10SM
03:35
Overcast
72°F / 22°C 68°F / 20°C 88% 29.98 in
(1015 mb)
NE 3.5 mph
(NE 6 kph)
- 10SM
03:15
Overcast
72°F / 22°C 68°F / 20°C 88% 29.98 in
(1015 mb)
Calm - 10SM
02:55
Overcast
72°F / 22°C 70°F / 21°C 94% 29.98 in
(1015 mb)
NNE 3.5 mph
(NNE 6 kph)
- 10SM
02:35
Mostly Cloudy
72°F / 22°C 68°F / 20°C 88% 29.98 in
(1015 mb)
Calm - 10SM
02:15
Mostly Cloudy
72°F / 22°C 70°F / 21°C 94% 29.98 in
(1015 mb)
Calm - 10SM
01:55
Mostly Cloudy
72°F / 22°C 70°F / 21°C 94% 29.98 in
(1015 mb)
Calm - 10SM
01:35
Overcast
72°F / 22°C 70°F / 21°C 94% 29.98 in
(1015 mb)
Calm - 10SM
01:15
Overcast
72°F / 22°C 70°F / 21°C 94% 29.98 in
(1015 mb)
Calm - 10SM
00:55
Mostly Cloudy
70°F / 21°C 70°F / 21°C 100% 29.98 in
(1015 mb)
Calm - 10SM
00:35
Partly Cloudy
72°F / 22°C 70°F / 21°C 94% 29.98 in
(1015 mb)
Calm - 10SM
00:15
Clear
72°F / 22°C 70°F / 21°C 94% 29.98 in
(1015 mb)
Calm - 10SM
Time Weather Temperature Dewpoint Humidity Pressure Winds Precip Visibility


Weather for websites

WeatherForYou.com, LLC is not responsible for any damages or problems caused by this service. Current weather conditions are obtained from the closest station including government and personal stations which may have varying degrees of accuracy. Weather forecasts are derived from the NOAA NDFD. Like all things, this site belongs to Jesus Christ... He just trusts us to maintain it. If you have any questions or comments email webmaster@weatherforyou.com

Copyright © 2015, WeatherForYou.com LLC. All rights reserved.